sat.trackr.live / text

‹ back to catalog

SKYKRAFT-4E

NORAD 65227 · 2025-154L

PAYLOAD ACTIVE UNKNOWN

§ Identity

Operator
Country
AUS
Launch date
2025-07-23
Launch site
AFWTR
Launch vehicle
Mass (kg)
RCS (m²)

External: N2YO · Heavens-Above · Gunter

§ Orbital elements

Epoch: 2026-05-25T03:20:22.007904Z

Period
96.16 min
Inclination
97.6708°
Eccentricity
0.0004321
Mean motion
14.97566527 rev/d
Perigee alt
571.4 km
Apogee alt
577.4 km
Semi-major
6,952.6 km
B*
5.5299e-4
RAAN
210.3400°
Arg perigee
2.8216°
Mean anomaly
357.3029°
Rev number
4,388

§ Raw data

SKYKRAFT-4E1 65227U 25154L   26145.13914361  .00006402  00000+0  55299-3 0  99992 65227  97.6708 210.3400 0004321   2.8216 357.3029 14.97566527 43884

JSON: /api/v1/satellites/65227 · /tle

For live sub-satellite position, see the globe view (requires WebGL).

§ Visibility from observer

Set your observer location to see the next 7 days of passes ≥ 10°. The values pass through the URL so the page stays shareable.

No JS? Fill the form by hand. The geolocation button needs JavaScript.